#timestamp,LO_Frequency,Hit,StdDev 
1596734855.3,286047006.7,P
1596734875.2,286047006.8,P
1596734895.9,286047007.0,P
1596734915.7,286047006.4,Y
1596734935.6,286047000.6,P
1596734955.4,286046999.8,N
1596734975.2,286047000.8,N
1596734995.1,286046999.9,N
1596734996.0,286046999.9,N
1596735015.8,286047002.5,N
1596735035.7,286047002.8,N
1596735055.5,286047000.3,N
1596735075.3,286047002.3,N
1596735095.2,286046999.7,N
1596735115.0,286047002.5,N
1596735115.9,286047002.5,N
1596735135.8,286047002.5,N
1596735155.6,286047002.6,N
1596735175.4,286047002.4,N
1596735195.3,286047001.7,N
1596735215.1,286047004.4,N
1596735235.8,286047001.4,N
1596735255.7,286047001.7,N
1596735275.5,286047001.3,N
1596735295.4,286047001.3,N
1596735315.2,286047004.3,N
1596735335.0,286047003.8,N
1596735335.9,286047003.8,N
1596735355.8,286047004.2,N
1596735375.6,286047004.0,N
1596735395.5,286047003.6,N
1596735415.3,286047004.1,N
1596735435.1,286047003.7,N
1596735455.9,286047004.1,N
1596735475.7,286047003.1,N
1596735495.5,286047003.7,N
1596735515.4,286047003.6,N
1596735535.2,286047004.3,Y
1596735555.1,286046999.8,P
1596735556.0,286046999.8,N
1596735575.8,286047002.6,N
1596735595.6,286047001.9,N
1596735615.5,286047001.7,N
1596735635.3,286047003.9,Y
1596735655.1,286047002.4,P
1596735675.9,286047002.8,P
1596735695.7,286047002.4,P
1596735715.6,286047002.3,Y
1596735735.4,286046998.5,P
1596735755.2,286047000.0,N
1596735775.1,286046999.9,N
1596735776.0,286046999.9,N
1596735795.8,286047000.7,N
1596735815.7,286046999.8,N
1596735835.5,286047000.7,N
1596735855.3,286046999.7,N
1596735875.2,286047000.4,N
1596735895.9,286047002.3,N
1596735915.7,286046999.8,N
1596735935.6,286046999.7,N
1596735955.4,286046999.7,N
1596735975.3,286046999.9,N
1596735995.1,286047002.6,N
1596735996.0,286047002.6,N
1596736015.8,286047002.7,N
1596736035.7,286046999.7,N
1596736055.5,286047000.1,N
1596736075.3,286047000.8,N
1596736095.2,286047001.0,N
1596736115.0,286047000.3,N
1596736115.9,286047000.3,N
1596736135.8,286046999.9,N
1596736155.6,286047000.2,N
1596736175.4,286047002.8,N
1596736195.3,286047002.7,N
1596736215.1,286047002.6,N
1596736235.8,286047002.4,N
1596736255.7,286047001.9,N
1596736275.5,286047001.6,N
1596736295.4,286047002.5,N
1596736315.2,286047001.9,N
1596736335.0,286047002.3,N
1596736335.9,286047002.3,N
1596736355.8,286047001.7,N
1596736375.6,286047002.6,N
1596736395.4,286047004.3,Y
1596736415.3,286047002.5,P
1596736435.1,286047002.1,P
1596736455.9,286047002.0,P
1596736475.7,286047002.0,Y
1596736495.5,286047000.5,P
1596736515.4,286047000.9,N
1596736535.2,286047001.2,N
1596736555.0,286047000.3,N
1596736555.9,286047000.3,N
1596736575.8,286046999.7,N
1596736595.6,286046999.8,N
1596736615.5,286047001.9,N
1596736635.3,286046999.9,N
1596736655.1,286047002.5,Y
1596736675.9,286047000.3,P
1596736695.7,286047000.1,N
1596736715.5,286046999.9,N
1596736735.4,286046999.7,N
1596736755.2,286046999.9,N
1596736775.1,286046999.7,N
1596736776.0,286046999.7,N
1596736795.8,286047000.4,N
